Flag for Falkland Islands Weather past 2 weeks in Stanley, Falkland Islands

Now
32 °F

Passing clouds.


Feels Like: 23 °F
Forecast: 35 / 40 °F
Wind: 12 mph from Northeast

Location: Mount Pleasant Airport

Current Time: Aug 31, 2014 at 8:29:46 AM

Latest Report: Aug 31, 2014 at 7:50 AM


Visibility: N/A

Pressure: 30.21 "Hg

Humidity: 75%

Dew point: 25 °F

Location of StanleyLocation

Historic Weather in Stanley — Graph

°F

Stanley temperature yesterday

Maximum temperature yesterday: 39 °F (at 12:50 PM)
Minimum temperature yesterday: 30 °F (at 3:50 AM)
Average temperature yesterday: 34 °F

Past Weeks' High & Low Weather Summary

 TemperatureHumidityPressure
High48 °F (Aug 16, 10:50 AM)100% (Aug 16, 6:50 PM)30.39 "Hg (Aug 16, 6:50 PM)
Low27 °F (Aug 25, 5:03 AM)53% (Aug 17, 3:50 AM)28.94 "Hg (Aug 18, 10:50 AM)
Average37 °F88%29.91 "Hg
* Reported Aug 16 6:50 AM — Aug 31 6:50 AM, Stanley, Weather by CustomWeather, © 2014

Note: Actual official high and low records may vary slightly from our data, if they occured in-between our weather recording intervals... More about our weather records

Advertising

Stanley weather history for previous 24 hours

 ConditionsComfort  
Time TempWeatherWind HumidityBarometerVisibility
6:50 AM
Aug 31
32 °FPassing clouds.13 mph69%30.21 "HgN/A
5:50 AM30 °FPassing clouds.12 mph75%30.21 "HgN/A
4:50 AM28 °FPassing clouds.10 mph80%30.21 "HgN/A
3:50 AM28 °FPassing clouds.7 mph80%30.21 "HgN/A
2:50 AM28 °FPassing clouds.8 mph80%30.21 "HgN/A
1:50 AM30 °FPassing clouds.8 mph80%30.21 "HgN/A
12:50 AM30 °FPassing clouds.9 mph80%30.21 "HgN/A
11:50 PM
Aug 30
32 °FPassing clouds.10 mph80%30.21 "HgN/A
10:50 PM32 °FPassing clouds.10 mph80%30.21 "HgN/A
9:50 PM32 °FPassing clouds.9 mph80%30.21 "HgN/A
8:50 PM32 °FPassing clouds.10 mph75%30.18 "HgN/A
7:50 PM32 °FPassing clouds.10 mph75%30.18 "HgN/A
6:50 PM32 °FPartly sunny.12 mph80%30.18 "HgN/A
5:50 PM34 °FScattered clouds.12 mph70%30.15 "HgN/A
4:50 PM36 °FScattered clouds.13 mph65%30.15 "HgN/A
3:50 PM37 °FScattered clouds.14 mph60%30.15 "HgN/A
2:50 PM37 °FPartly sunny.13 mph60%30.15 "HgN/A
1:50 PM37 °FPartly sunny.13 mph60%30.12 "HgN/A
12:50 PM39 °FPartly sunny.13 mph65%30.12 "HgN/A
11:50 AM37 °FPartly sunny.14 mph65%30.12 "HgN/A
10:50 AM37 °FScattered clouds.14 mph65%30.12 "HgN/A
9:50 AM34 °FPartly sunny.12 mph81%30.09 "HgN/A
8:50 AM32 °FPartly sunny.10 mph93%30.09 "HgN/A
Weather by CustomWeather, © 2014

See weather overviewHow to use our weather pages